When you browse on this site, cookies collect data to enhance your experience and personalize the content and advertising you see.
Visit our Privacy Policy to learn more. By continuing to use the site, you agree to this use of cookies and data.
  • In Österreich
  • Länderverzeichnis
  • Für 7 Tage
  • Wassertemperatur
  • Wetterkarte
  • News
  • Widgets
  • user-avatar
    Anmelden

    Stündliche Wetter Dalat

    Heute, 21 Januar, Dienstag

    Zeit Temperatur Niederschläge Wind Luftdruck Luftfeuchtigkeit
    00:00 +14°C° 0 mm 1 m/S 654 mmHg 85%
    01:00 +14°C° 0 mm 1 m/S 654 mmHg 83%
    02:00 +14°C° 0 mm 1 m/S 654 mmHg 83%
    03:00 +14°C° 0 mm 1 m/S 654 mmHg 82%
    04:00 +14°C° 0 mm 1 m/S 654 mmHg 81%
    05:00 +15°C° 0 mm 1 m/S 654 mmHg 80%
    06:00 +15°C° 0 mm 1 m/S 655 mmHg 78%
    07:00 +16°C° 0 mm 1 m/S 655 mmHg 77%
    08:00 +20°C° 0 mm 1 m/S 656 mmHg 64%
    09:00 +23°C° 0 mm 1 m/S 657 mmHg 52%
    10:00 +26°C° 0 mm 1 m/S 658 mmHg 39%
    11:00 +27°C° 0 mm 2 m/S 658 mmHg 37%
    12:00 +28°C° 0 mm 2 m/S 658 mmHg 35%
    13:00 +29°C° 0 mm 2 m/S 657 mmHg 32%
    14:00 +28°C° 0 mm 2 m/S 657 mmHg 37%
    15:00 +27°C° 0 mm 2 m/S 656 mmHg 43%
    16:00 +27°C° 0 mm 2 m/S 655 mmHg 48%
    17:00 +24°C° 0 mm 2 m/S 655 mmHg 63%
    18:00 +21°C° 0 mm 1 m/S 655 mmHg 77%
    19:00 +18°C° 0 mm 1 m/S 654 mmHg 92%
    20:00 +18°C° 0 mm 1 m/S 654 mmHg 92%
    21:00 +16°C° 0 mm 1 m/S 655 mmHg 92%
    22:00 +16°C° 0 mm 1 m/S 655 mmHg 91%
    23:00 +16°C° 0 mm 1 m/S 655 mmHg 89%

    Morgen, 22 Januar, Mittwoch

    Zeit Temperatur Niederschläge Wind Luftdruck Luftfeuchtigkeit
    00:00 +16°C° 0 mm 1 m/S 654 mmHg 86%
    01:00 +15°C° 0 mm 1 m/S 654 mmHg 84%
    02:00 +15°C° 0 mm 1 m/S 654 mmHg 83%
    03:00 +15°C° 0 mm 1 m/S 654 mmHg 82%
    04:00 +15°C° 0 mm 1 m/S 653 mmHg 81%
    05:00 +16°C° 0 mm 1 m/S 654 mmHg 79%
    06:00 +16°C° 0 mm 1 m/S 654 mmHg 77%
    07:00 +18°C° 0 mm 1 m/S 655 mmHg 75%
    08:00 +21°C° 0 mm 1 m/S 656 mmHg 66%
    09:00 +24°C° 0 mm 1 m/S 657 mmHg 56%
    10:00 +27°C° 0 mm 2 m/S 658 mmHg 47%
    11:00 +27°C° 0 mm 2 m/S 657 mmHg 45%
    12:00 +28°C° 0 mm 2 m/S 657 mmHg 44%
    13:00 +28°C° 0 mm 3 m/S 656 mmHg 42%
    14:00 +27°C° 0 mm 2 m/S 656 mmHg 46%
    15:00 +27°C° 0 mm 2 m/S 655 mmHg 51%
    16:00 +26°C° 0 mm 2 m/S 654 mmHg 55%
    17:00 +23°C° 0 mm 1 m/S 654 mmHg 66%
    18:00 +21°C° 0 mm 1 m/S 654 mmHg 78%
    19:00 +19°C° 0 mm 1 m/S 653 mmHg 90%
    20:00 +18°C° 0 mm 1 m/S 654 mmHg 90%
    21:00 +16°C° 0 mm 1 m/S 654 mmHg 91%
    22:00 +16°C° 0 mm 1 m/S 654 mmHg 91%
    23:00 +15°C° 0 mm 1 m/S 653 mmHg 87%

    übermorgen, 23 Januar, Donnerstag

    Zeit Temperatur Niederschläge Wind Luftdruck Luftfeuchtigkeit
    00:00 +15°C° 0 mm 1 m/S 653 mmHg 82%
    01:00 +15°C° 0 mm 1 m/S 652 mmHg 78%
    02:00 +14°C° 0 mm 1 m/S 652 mmHg 75%
    03:00 +14°C° 0 mm 1 m/S 652 mmHg 71%
    04:00 +14°C° 0 mm 1 m/S 652 mmHg 68%
    05:00 +14°C° 0 mm 1 m/S 652 mmHg 66%
    06:00 +15°C° 0 mm 1 m/S 653 mmHg 65%
    07:00 +15°C° 0 mm 1 m/S 654 mmHg 64%
    08:00 +19°C° 0 mm 1 m/S 655 mmHg 54%
    09:00 +23°C° 0 mm 1 m/S 656 mmHg 45%
    10:00 +26°C° 0 mm 1 m/S 657 mmHg 36%
    11:00 +27°C° 0 mm 2 m/S 656 mmHg 33%
    12:00 +28°C° 0 mm 2 m/S 656 mmHg 29%
    13:00 +29°C° 0 mm 2 m/S 656 mmHg 26%
    14:00 +28°C° 0 mm 2 m/S 655 mmHg 29%
    15:00 +27°C° 0 mm 2 m/S 654 mmHg 32%
    16:00 +26°C° 0 mm 2 m/S 654 mmHg 34%
    17:00 +23°C° 0 mm 2 m/S 653 mmHg 50%
    18:00 +20°C° 0 mm 1 m/S 653 mmHg 65%
    19:00 +16°C° 0 mm 1 m/S 652 mmHg 80%
    20:00 +16°C° 0 mm 1 m/S 652 mmHg 83%
    21:00 +15°C° 0 mm 1 m/S 652 mmHg 86%
    22:00 +15°C° 0 mm 1 m/S 653 mmHg 89%
    23:00 +15°C° 0 mm 1 m/S 653 mmHg 88%

    24 Januar, Freitag

    Zeit Temperatur Niederschläge Wind Luftdruck Luftfeuchtigkeit
    00:00 +15°C° 0 mm 1 m/S 652 mmHg 87%
    01:00 +15°C° 0 mm 1 m/S 652 mmHg 86%
    02:00 +14°C° 0 mm 1 m/S 652 mmHg 87%
    03:00 +14°C° 0 mm 1 m/S 652 mmHg 87%
    04:00 +14°C° 0 mm 1 m/S 651 mmHg 87%
    05:00 +15°C° 0 mm 1 m/S 652 mmHg 85%
    06:00 +15°C° 0 mm 1 m/S 653 mmHg 84%
    07:00 +16°C° 0 mm 1 m/S 653 mmHg 82%
    08:00 +20°C° 0 mm 1 m/S 654 mmHg 70%
    09:00 +23°C° 0 mm 1 m/S 655 mmHg 58%
    10:00 +26°C° 0 mm 1 m/S 656 mmHg 46%
    11:00 +27°C° 0 mm 2 m/S 656 mmHg 44%
    12:00 +27°C° 0 mm 2 m/S 655 mmHg 43%
    13:00 +28°C° 0 mm 2 m/S 655 mmHg 41%
    14:00 +27°C° 0.1 mm 2 m/S 654 mmHg 47%
    15:00 +26°C° 0.1 mm 2 m/S 653 mmHg 53%
    16:00 +24°C° 0.1 mm 1 m/S 653 mmHg 59%
    17:00 +22°C° 0 mm 1 m/S 652 mmHg 70%
    18:00 +20°C° 0 mm 1 m/S 652 mmHg 81%
    19:00 +18°C° 0 mm 1 m/S 651 mmHg 92%
    20:00 +18°C° 0 mm 1 m/S 652 mmHg 93%
    21:00 +16°C° 0 mm 1 m/S 652 mmHg 95%
    22:00 +16°C° 0 mm 1 m/S 652 mmHg 96%
    23:00 +16°C° 0 mm 1 m/S 652 mmHg 95%

    25 Januar, Samstag

    Zeit Temperatur Niederschläge Wind Luftdruck Luftfeuchtigkeit
    00:00 +16°C° 0 mm 1 m/S 652 mmHg 95%
    01:00 +14°C° 0 mm 0 m/S 651 mmHg 95%
    02:00 +15°C° 0 mm 1 m/S 651 mmHg 94%
    03:00 +15°C° 0 mm 1 m/S 651 mmHg 94%
    04:00 +15°C° 0 mm 1 m/S 651 mmHg 93%
    05:00 +15°C° 0 mm 1 m/S 651 mmHg 90%
    06:00 +16°C° 0 mm 1 m/S 652 mmHg 87%
    07:00 +15°C° 0 mm 0 m/S 652 mmHg 84%
    08:00 +20°C° 0 mm 1 m/S 653 mmHg 70%
    09:00 +24°C° 0 mm 1 m/S 655 mmHg 55%
    10:00 +27°C° 0 mm 1 m/S 656 mmHg 40%
    11:00 +28°C° 0 mm 1 m/S 655 mmHg 39%
    12:00 +29°C° 0 mm 1 m/S 655 mmHg 37%
    13:00 +29°C° 0 mm 2 m/S 654 mmHg 35%
    14:00 +28°C° 0 mm 2 m/S 654 mmHg 40%
    15:00 +27°C° 0 mm 2 m/S 653 mmHg 46%
    16:00 +26°C° 0 mm 2 m/S 652 mmHg 51%
    17:00 +24°C° 0.1 mm 2 m/S 652 mmHg 65%
    18:00 +21°C° 0.1 mm 1 m/S 652 mmHg 79%
    19:00 +19°C° 0.1 mm 1 m/S 651 mmHg 93%
    20:00 +16°C° 0 mm 0 m/S 652 mmHg 95%
    21:00 +16°C° 0 mm 0 m/S 652 mmHg 96%
    22:00 +15°C° 0 mm 0 m/S 652 mmHg 97%
    23:00 +15°C° 0 mm 0 m/S 652 mmHg 97%

    26 Januar, Sonntag

    Zeit Temperatur Niederschläge Wind Luftdruck Luftfeuchtigkeit
    00:00 +15°C° 0 mm 0 m/S 651 mmHg 97%
    01:00 +15°C° 0 mm 0 m/S 651 mmHg 96%
    02:00 +15°C° 0 mm 0 m/S 651 mmHg 96%
    03:00 +14°C° 0 mm 0 m/S 651 mmHg 96%
    04:00 +14°C° 0 mm 0 m/S 650 mmHg 95%
    05:00 +15°C° 0 mm 0 m/S 651 mmHg 93%
    06:00 +15°C° 0 mm 0 m/S 652 mmHg 91%
    07:00 +16°C° 0 mm 0 m/S 652 mmHg 88%
    08:00 +19°C° 0 mm 0 m/S 653 mmHg 74%
    09:00 +22°C° 0 mm 0 m/S 654 mmHg 60%
    10:00 +26°C° 0 mm 0 m/S 656 mmHg 46%
    11:00 +28°C° 0 mm 1 m/S 655 mmHg 46%
    12:00 +28°C° 0 mm 1 m/S 654 mmHg 47%
    13:00 +27°C° 0 mm 1 m/S 653 mmHg 47%
    14:00 +26°C° 0.4 mm 1 m/S 653 mmHg 57%
    15:00 +25°C° 0.4 mm 1 m/S 652 mmHg 67%
    16:00 +23°C° 0.4 mm 1 m/S 651 mmHg 76%
    17:00 +22°C° 0.3 mm 1 m/S 651 mmHg 82%
    18:00 +18°C° 0.3 mm 0 m/S 651 mmHg 88%
    19:00 +17°C° 0.3 mm 0 m/S 651 mmHg 94%
    20:00 +16°C° 0.2 mm 0 m/S 652 mmHg 95%
    21:00 +16°C° 0.2 mm 0 m/S 652 mmHg 96%
    22:00 +18°C° 0.2 mm 1 m/S 653 mmHg 97%
    23:00 +18°C° 0.1 mm 1 m/S 652 mmHg 97%
    Mehr zeigen